Weather in Ihnatpil

Ukraine / Zhytomyr Region     51°08′49″N   28°43′34″E
temp.,
°C
wind,
m/s
gust,
m/s
humid.,
%
clouds,
%
prec.,
mm/h
press.,
hPa
HPBL,
m
23 september, thu
thu2300:00+5nw3696100 0.2 1016861
03:00+5nw4696100 0.5 1016920
06:00+6wnw3696100 0.3 1015884
09:00+6w3695100 0.7 10151006
12:00+7wnw3691100 0.3 1015727
15:00+7wnw3789100 0.5 1014940
18:00+8sw2490100 0.0 1013227
21:00+8ssw3790100 0.0 1012216
24 september, fri
fri2400:00+8ssw41192100 0.2 1008396
03:00+9sw61494100 1.3 1004645
06:00+9ssw81794100 5.3 9991000
09:00+11w915836 9.4 9981192
12:00+11w8147817 0.3 9991254
15:00+11w71577100 0.6 10001379
18:00+11wnw81577100 0.9 10011558
21:00+10wnw6148334 2.4 10031192
25 september, sat
sat2500:00+9wnw6148559 0.1 1005792
03:00+9wnw61288100 0.1 1007763
06:00+9wnw51287100 0.0 1009666
09:00+9wnw51187100 0.0 1011547
12:00+9w41090100 0.1 1012503
15:00+12w4108272 0.3 1012755
18:00+14w51283100 0.0 1013747
21:00+14w51389100 0.1 1013704
26 september, sun
sun2600:00+14wnw51289100 0.3 1014720
03:00+12nw5128710 0.4 1015693
06:00+10wnw412910 0.0 1017437
09:00+11nw510840 0.0 1019477
12:00+14nnw576950 0.0 10201010
15:00+16nnw56550 0.0 10201253
18:00+14n37665 0.0 1021249
21:00+9nnw22845 0.0 102324
27 september, mon
mon2700:00+8nne23887 0.0 102341
03:00+7nne22895 0.0 102411
06:00+6nne228919 0.0 102431
09:00+8ne23765 0.0 1025187
12:00+13ne23595 0.0 1025927
15:00+15ne23528 0.0 10241370
18:00+13ne246412 0.0 102472
21:00+10ene246571 0.0 102566